Regional Weather Roundup
Issued by NWS

Home | Current Version | Previous Version | Graphics & Text | Print | Product List | Glossary On
Versions: 1 2 3 4 5 6 7 8 9 10 11 12 13 14 15 16 17 18 19 20 21 22 23 24 25 26 27 28
000
ASUS45 KTFX 191210
RWRMT
MONTANA REGIONAL WEATHER ROUNDUP
NATIONAL WEATHER SERVICE GREAT FALLS MT
600 AM MDT THU OCT 19 2017

NOTE: "FAIR" INDICATES FEW OR NO CLOUDS BELOW 12000 FEET WITH NO
SIGNIFICANT WEATHER AND/OR OBSTRUCTIONS TO VISIBILITY.

MTZ001>007-043-191300-
WEST OF THE DIVIDE

CITY           SKY/WX    TMP DP  RH WIND       PRES   REMARKS
KALISPELL      MOCLDY    51  37  58 S9        29.64S
MISSOULA       MOCLDY    31  30  96 CALM      29.75R
BUTTE          CLOUDY    35  26  69 CALM      29.89S
MULLAN PASS    CLOUDY    45  24  43 SW13G23   29.75F
ANACONDA         N/A     50  19  29 S14       29.84S
DEER LODGE       N/A     52  21  30 S8        29.84R
EUREKA           N/A     57  37  47 MISG      29.61R
HAMILTON         N/A     55  25  30 S13       29.74F
LIBBY            N/A     63  28  27 S6        29.59R
$$

MTZ008-052>055-191300-
SOUTHWEST MONTANA

CITY           SKY/WX    TMP DP  RH WIND       PRES   REMARKS
BOZEMAN        CLOUDY    39  26  59 S6        29.86S
DILLON         CLOUDY    47  21  35 S12       29.90S
W YELLOWSTONE  CLOUDY    23  21  93 CALM      30.07R
ENNIS          CLOUDY    43  23  45 S13       29.98R
THREE FORKS      N/A     57  20  24 SW14      29.84R
$$

MTZ009-010-012-014-046-048-049-054-191300-
EAST SLOPES AND CENTRAL MONTANA

CITY           SKY/WX    TMP DP  RH WIND       PRES   REMARKS
CUT BANK       CLOUDY    54  25  32 W14       29.59S
GREAT FALLS    CLOUDY    62  20  19 SW22G33   29.67R
MALMSTROM AFB  PTCLDY    58  24  27 SW21      29.67F
HELENA         CLOUDY    43  30  60 NW5       29.75S
BOWMANS CRNR     N/A     55  21  26 S18G28    29.67S
CHOTEAU          N/A     61  21  21 SW16G28   29.64S
FAIRFIELD        N/A     55  22  28 S14       29.64S
POWER            N/A     56  22  26 S14       29.65S
RAYNESFORD       N/A     60  22  22 SW13G18   29.72R
ULM              N/A     58  24  27 S23G29    29.67S
$$

MTZ011-013-016-021-045-047-050-051-191300-
NORTH CENTRAL MONTANA

CITY           SKY/WX    TMP DP  RH WIND       PRES   REMARKS
HAVRE          CLOUDY    57  28  33 SW21      29.58R
LEWISTOWN      CLOUDY    55  25  31 SW12      29.77R
N BAR RANCH      N/A     50  25  37 VRB3      29.81S
CHINOOK          N/A     64  23  20 SW6       29.60R
DENTON           N/A     52  25  35 SW15      29.67F
GEYSER           N/A     52  22  31 CALM      29.72S
GRASS RANGE      N/A     55  25  30 W9        29.72S
JUDITH GAP       N/A     47  25  42 S8        29.81R
WINIFRED         N/A     59  24  26 SW17G23   29.70F
$$

MTZ017>020-022>027-061-062-191300-
NORTHEAST MONTANA

CITY           SKY/WX    TMP DP  RH WIND       PRES   REMARKS
GLASGOW        CLOUDY    46  35  65 SE8       29.66S
JORDAN           N/A     51  32  48 W12       29.70F
SIDNEY         CLOUDY    41  30  65 SW14      29.73S
WOLF POINT     CLOUDY    35  27  72 CALM      29.69S
MALTA          CLEAR     45  34  65 W9        29.64F
PLENTYWOOD       N/A     43  27  52 CALM      29.68S
POPLAR           N/A     41  28  60 S3        29.70R
$$

MTZ028>42-056>058-191300-
SOUTHCENTRAL AND SOUTHEAST MONTANA

CITY           SKY/WX    TMP DP  RH WIND       PRES   REMARKS
BAKER          CLOUDY    38  30  73 E5        29.81S
BILLINGS       CLOUDY    58  25  28 W9        29.81S
LIVINGSTON     CLOUDY    58  24  27 SW21G36   29.85R
MILES CITY     CLOUDY    44  32  62 S8        29.78R
BIG TIMBER     CLEAR     55  21  26 SW9       29.86S
FORSYTH          N/A     45  30  57 CALM      29.76F
HARLOWTON        N/A     49  26  41 MISG      29.80S
LAUREL           N/A     57  23  26 W13       29.83R
$$

REGIONAL REPORTS...DAKOTAS

CITY           SKY/WX    TMP DP  RH WIND       PRES   REMARKS
WILLISTON      CLOUDY    36  28  73 SW3       29.72S
MINOT          CLOUDY    47  28  47 S12       29.72F
DICKINSON      CLOUDY    41  27  57 S8        29.76F
BEACH            N/A     39  28  65 S9        29.80S
CROSBY           N/A     41  28  60 S15       29.69S
TIOGA            N/A     41  28  60 SE5       29.74S
WATFORD CITY     N/A     36  28  75 CALM      29.73F
BISMARCK       CLOUDY    38  29  70 E3        29.82S
GRAND FORKS    CLOUDY    33  27  78 S6        29.87F WCI  28
FARGO          CLOUDY    38  30  73 SE7       29.92F
BUFFALO SD       N/A     43  27  53 SW5       29.77S
RAPID CITY     CLOUDY    43  26  51 E5        29.87S
$$

REGIONAL REPORTS...WYOMING/IDAHO/WASHINGTON

CITY           SKY/WX    TMP DP  RH WIND       PRES   REMARKS
GILLETTE       CLOUDY    47  21  35 N3        29.90S
SHERIDAN       CLOUDY    41  29  62 CALM      29.87S
BUFFALO WY     CLOUDY    57  18  21 CALM      29.92F
CODY           CLOUDY    51  22  31 S16       29.95F
YELLOWSTONE LA   N/A     25  23  92 NW3       30.14R
IDAHO FALLS    CLOUDY    32  27  81 N8        30.01R WCI  25
SALMON         CLOUDY    34  26  72 VRB3      29.90R
BOISE          CLEAR     50  28  42 SE13      29.84R
SPOKANE        CLOUDY    55  41  59 S15G23    29.62S
$$

REGIONAL REPORTS...ALBERTA

CITY           SKY/WX    TMP DP  RH WIND       PRES   REMARKS
EDMONTON       CLEAR     37  30  75 S5        29.32R
CALGARY        PTCLDY    54  34  47 W9        29.35R
LETHBRIDGE     CLEAR     57  30  35 SW23G32   29.45S
MEDICINE HAT   CLEAR     59  30  33 S20G28    29.47F
$$

REGIONAL REPORTS...SASKATCHEWAN

CITY           SKY/WX    TMP DP  RH WIND       PRES   REMARKS
SWIFT CURRENT  CLOUDY    57  36  44 SW21G29   29.51F
REGINA         MOCLDY    36  23  60 SE13      29.57F WCI  27
SASKATOON      CLOUDY    41  27  56 SE9       29.45F
$$




USA.gov is the U.S. government's official web portal to all federal, state and local government web resources and services.